User: anonymous   Login
Location: Raleigh
(35.7720°N, 78.6390°W)
Time: 19:28:56
(UTC-05:00)
Language:

JAS-2 - Orbit

View from above orbital plane
View from above orbital plane
View from above satellite
View from above satellite

Ground track
Ground track

The orbit data is extracted from the following two-line orbital elements,

1 24278U 96046B   15031.20297605 -.00000011  00000-0  22550-4 0  5705
2 24278 098.5246 018.6331 0351296 066.1461 357.3345 13.53042258911500
Epoch (UTC): 31 January 2015 04:52:17
Eccentricity: 0.0351296
inclination: 98.5246°
perigee height: 800 km
apogee height: 1322 km
right ascension of ascending node: 18.6331°
argument of perigee: 66.1461°
revolutions per day: 13.53042258
mean anomaly at epoch: 357.3345°
orbit number at epoch: 91150

The dashed part of the orbit path shows where the satellite is in the earth's shadow,  

DLR